sat.trackr.live / text

‹ back to catalog

STARLINK-33632

NORAD 63577 · 2025-076J

PAYLOAD ACTIVE UNKNOWN

§ Identity

Operator
Country
US
Launch date
2025-04-14
Launch site
AFETR
Launch vehicle
Mass (kg)
RCS (m²)

Purposes: comms

External: N2YO · Heavens-Above · Gunter

§ Orbital elements

Epoch: 2026-09-20T14:00:55.973952Z

Period
94.27 min
Inclination
43.0004°
Eccentricity
0.0001378
Mean motion
15.27590412 rev/d
Perigee alt
482.1 km
Apogee alt
484.0 km
Semi-major
6,861.2 km
B*
3.8912e-4
RAAN
301.3236°
Arg perigee
268.5871°
Mean anomaly
91.4823°
Rev number
8,163

§ Raw data

STARLINK-336321 63577U 25076J   26263.58398118  .00010464  00000+0  38912-3 0  99902 63577  43.0004 301.3236 0001378 268.5871  91.4823 15.27590412 81636

JSON: /api/v1/satellites/63577 · /tle

For live sub-satellite position, see the globe view (requires WebGL).

§ Visibility from observer

Set your observer location to see the next 7 days of passes ≥ 10°. The values pass through the URL so the page stays shareable.

No JS? Fill the form by hand. The geolocation button needs JavaScript.